Regional Weather Roundup
Issued by NWS

Home | Current Version | Previous Version | Graphics & Text | Print | Product List | Glossary On
Versions: 1 2 3 4 5 6 7 8 9 10 11 12 13 14 15 16 17 18 19 20 21 22 23 24 25 26 27 28 29 30 31 32 33 34 35 36 37 38 39 40 41 42 43 44 45 46 47 48 49 50
000
ASUS43 KDTX 170501
RWRMI
MICHIGAN HOURLY REGIONAL WEATHER ROUNDUP
NATIONAL WEATHER SERVICE DETROIT/PONTIAC MI
100 AM EDT THU APR 17 2014

NOTE: "FAIR" INDICATES FEW OR NO CLOUDS BELOW 12,000 FEET WITH NO
SIGNIFICANT WEATHER AND/OR OBSTRUCTION TO VISIBILITY.

MIZ047>049-052>055-059>063-066>070-074>076-081>083-170600-
SOUTHEAST LOWER MICHIGAN

CITY           SKY/WX    TMP DP  RH WIND       PRES   REMARKS
ADRIAN         CLEAR     33  28  81 E8        30.34F WCI  26
ALMA           CLOUDY    34  21  58 SE12      30.33S WCI  26
ANN ARBOR      CLEAR     31  22  69 E9        30.35F WCI  23
BAD AXE        PTCLDY    32  22  66 SE6       30.40F WCI  26
CARO           MOCLDY    34  18  52 SE8       30.37F WCI  27
DETROIT CITY   CLEAR     36  23  59 E14       30.39F WCI  27
DETROIT        PTCLDY    33  23  66 E9        30.38F WCI  25
FLINT          CLEAR     33  18  53 E12       30.36S WCI  24
GROSSE ILE     CLEAR     34  25  69 E8        30.36F WCI  27
HILLSDALE      PTCLDY    33  29  85 SE12G18   30.29S WCI  25
HOWELL         CLEAR     32  21  64 SE12      30.33S WCI  23

CITY           SKY/WX    TMP DP  RH WIND       PRES   REMARKS
JACKSON        CLEAR     31  23  72 SE13      30.31F WCI  21
LAMBERTVILLE   CLEAR     37  32  81 E6        30.35S WCI  33
LANSING        MOCLDY    34  20  56 SE14      30.32S WCI  25
LAPEER         FAIR      31  16  53 SE8       30.37F WCI  24
MASON          PTCLDY    32  22  65 SE8G17    30.31S WCI  25
MONROE         CLEAR     37  30  75 E10       30.35S WCI  30
MT. CLEMENS    CLEAR     33  22  63 E15G22    30.38F WCI  23
PONTIAC        CLEAR     31  18  58 E12       30.35F WCI  22
PORT HOPE        N/A     35  23  61 SE10G22   30.40F WCI  27
PORT HURON     CLEAR     30  18  59 E10       30.42S WCI  21
TRI CITIES     MOCLDY    34  20  56 SE14      30.36S WCI  25
TROY           CLEAR     33  21  60 E8        30.39F WCI  27
SAGINAW HB     MOCLDY    34  21  60 SE9       30.36S WCI  26
YPSILANTI      CLEAR     34  22  61 E10       30.37F WCI  26
$$
MIZ043>046-050>051-056>058-064>065-071>073-077>080-170600-
SOUTHWEST LOWER MICHIGAN

CITY           SKY/WX    TMP DP  RH WIND       PRES   REMARKS
BATTLE CREEK   CLOUDY    35  25  66 SE9       30.28S WCI  28
BENTON HARBOR  PTCLDY    41  26  55 SE16G23   30.21S
BIG RAPIDS     CLOUDY    36  22  56 SE18      30.27S WCI  26
COLDWATER      MOCLDY    34  27  76 SE12G17   30.28S WCI  25
FREMONT        MOCLDY    38  24  57 SE13G23   30.24S WCI  30
HOLLAND        CLOUDY    41  27  57 SE16G26   30.24R
GRAND RAPIDS   CLOUDY    38  26  62 SE15      30.27S WCI  29
IONIA          FAIR      36  23  60 E13       30.29S WCI  27
KALAMAZOO      CLOUDY    36  26  67 SE9       30.28R WCI  29
LUDINGTON      CLOUDY    39  25  56 SE10G22   30.24R WCI  32
MARSHALL       MOCLDY    32  25  76 SE9G17    30.29S WCI  24
MOUNT PLEASANT CLOUDY    35  20  55 E10       30.33R WCI  27
MUSKEGON       CLOUDY    41  25  53 SE16      30.24R
SOUTH HAVEN    MOCLDY    41  26  56 SE12G17   30.22S
$$
MIZ016>042-170600-
NORTHERN LOWER MICHIGAN

CITY           SKY/WX    TMP DP  RH WIND       PRES   REMARKS
ALPENA         CLOUDY    33  24  69 SE12      30.39S WCI  24
BEAVER ISLAND  CLOUDY    32  30  92 NE14      30.30S WCI  22
BELLAIRE       CLOUDY    37  24  58 SE9       30.30S WCI  31
CADILLAC       CLOUDY    34  23  64 SE10G16   30.26S WCI  26
CHARLEVOIX     CLOUDY    37  25  62 SE16G22   30.31F WCI  27
FRANKFORT      CLOUDY    40  23  51 SE14G21   30.23S WCI  32
GAYLORD        CLOUDY    32  22  66 SE14      30.31R WCI  22
GRAYLING       CLOUDY    33  22  64 SE10      30.33R WCI  25
HARBOR SPRINGS CLOUDY    35  26  68 E7        30.31R WCI  29
HOUGHTON LAKE  CLOUDY    34  22  61 SE8G18    30.32S WCI  27
MANISTEE       CLOUDY    39  21  48 SE12G22   30.23S WCI  32
OSCODA         CLOUDY    36  21  54 SE10G18   30.40S WCI  28
PELLSTON       CLOUDY    34  23  64 SE10      30.34R WCI  26
ROGERS CITY    CLOUDY    33  25  72 SE12G22   30.38R WCI  25
TRAVERSE CITY  CLOUDY    38  22  52 VRB6G25   30.26S WCI  33
$$
MIZ007>008-015-170600-
EASTERN UPPER MICHIGAN

CITY           SKY/WX    TMP DP  RH WIND       PRES   REMARKS
KINROSS        CLOUDY    30  30 100 E7        30.39R WCI  23
MACKINAC ISLAN CLOUDY    31  28  85 E13       30.35R WCI  22
NEWBERRY       CLOUDY    28  27  96 NE10      30.35S WCI  18
S. S. MARIE    LGT SNOW  29  27  92 E7        30.41R VSB 1   WCI  22
$$
MIZ004>006-011>014-085-170600-
CENTRAL UPPER MICHIGAN

CITY           SKY/WX    TMP DP  RH WIND       PRES   REMARKS
MANISTIQUE     CLOUDY    31  28  92 E9        30.31R WCI  22
ESCANABA       CLOUDY    30  27  86 NE10      30.25F WCI  21
MENOMINEE      CLOUDY    34  28  80 E9        30.21R WCI  26
SAWYER-GWINN   LGT SNOW  28  26  93 E8        30.26S VSB 1   WCI  20
$$
MIZ001>003-009>011-084-170600-
WESTERN UPPER MICHIGAN

CITY           SKY/WX    TMP DP  RH WIND       PRES   REMARKS
IRON MOUNTAIN  CLOUDY    30  27  88 E12       30.19S WCI  20
HOUGHTON       LGT SNOW  28  25  88 E22G30    30.24S VSB 1   WCI  14
COPPER HARBOR    N/A     29  26  89 SE9       30.31F WCI  20
IRONWOOD       CLOUDY    30  27  86 E13G18    30.06F WCI  20
$$

ABBREVIATIONS USED IN REMARKS
   TC - TEMPERATURE IN CELSIUS
  WCI - WIND CHILL INDEX
   HX - HEAT INDEX
  VSB - VISIBILITY




USA.gov is the U.S. government's official web portal to all federal, state and local government web resources and services.